AirNav   Air Wisconsin Up To $57,000 Bonus
 
 1049 users online  

9G1 Pittsburgh Northeast Airport
Pittsburgh, Pennsylvania, USA

GOING TO PITTSBURGH?


FAA INFORMATION EFFECTIVE 20 MAY 2021

Location

FAA Identifier: 9G1
Lat/Long: 40-36-12.7666N 079-49-34.0282W
40-36.212777N 079-49.567137W
40.6035463,-79.8261189
(estimated)
Elevation: 1063 ft. / 324 m (estimated)
Variation: 09W (2010)
From city: 12 miles NNE of PITTSBURGH, PA
Time zone: UTC -4 (UTC -5 during Standard Time)
Zip code: 15084

Airport Operations

Airport use: Open to the public
Control tower: no
ARTCC: CLEVELAND CENTER
FSS: ALTOONA FLIGHT SERVICE STATION
NOTAMs facility: AOO (NOTAM-D service available)
Attendance: MON - FRI 0800-1700
UNATNDD FEDERAL HOL.
Wind indicator: yes
Segmented circle: no

Airport Communications

CTAF/UNICOM: 122.8
WX AWOS-3PT at BTP (12 nm NW): 121.450 (724-586-6434)
WX AWOS-A at 42PN (12 nm SW): PHONE 412-442-2213
WX ASOS at AGC (16 nm S): 120.55 (412-466-8968)
WX AWOS-3PT at PJC (19 nm NW): 118.45 (724-452-5304)
WX ASOS at PIT (20 nm W): PHONE 412-472-0145

Nearby radio navigation aids

VOR radial/distance  VOR name  Freq  Var
AGCr036/21.8ALLEGHENY VOR/DME110.0009W
EWCr135/22.0ELLWOOD CITY VOR/DME115.8008W
HLGr066/39.7WHEELING VOR/DME112.2007W

 
NDB name  Hdg/Dist  Freq  Var  ID
CASTLE142/36.727209WUCP ..- -.-. .--.

Airport Services

Parking: tiedowns
Airframe service: NONE
Powerplant service: NONE
Bottled oxygen: NONE
Bulk oxygen: NONE

Runway Information

Runway 17/35

Dimensions: 3550 x 100 ft. / 1082 x 30 m
Surface: asphalt, in good condition
Runway edge markings: RWY MARKINGS FADED
RWY MARKINGS FADED.
RUNWAY 17  RUNWAY 35
Latitude: 40-36.494232N40-35.931320N
Longitude: 079-49.670788W079-49.463483W
Elevation: 1062.6 ft.1054.9 ft.
Traffic pattern: leftleft
Markings: nonprecision, in poor conditionbasic, in poor condition
Touchdown point: yes, no lightsyes, no lights
Obstructions: 130 ft. trees, 1830 ft. from runway, 258 ft. left of centerline, 12:1 slope to clear35 ft. trees, 476 ft. from runway, 38 ft. right of centerline, 7:1 slope to clear

Airport Ownership and Management from official FAA records

Ownership: Privately-owned
Owner: MSA PITTSBURGH NORTHEAST LLC
6565 PENN AVE
PITTSBURGH, PA 15206
Phone (724) 265-6767
Manager: ALEXIS NIXON
500 ROCKPOINTE BLVD
TARENTUM, PA 15084
Phone (724) 265-6767

Airport Operational Statistics

Aircraft operations: avg 83/month *
50% local general aviation
40% transient general aviation
10% military
* for 12-month period ending 07 January 2020

Additional Remarks

RWY CONST INPR PAEW ADJ TO RWY 17/35.
PAEW INDEF; OPS OF CONSTR EQUIP 519 FT FROM RWY 35 THLD. PENNDOT CONSTRUCTION TRAINING SITE.
TIE DOWN ROPES NOT SUPPLIED.
ARPT CLSD FOR NIGHT OPS.
FOR CD CTC PITTSBURGH APCH AT 412-472-5591

Instrument Procedures

There are no published instrument procedures at 9G1.

Some nearby airports with instrument procedures:

KBTP - Pittsburgh/Butler Regional Airport (12 nm NW)
6P7 - McVille Airport (13 nm NE)
KAGC - Allegheny County Airport (16 nm S)
KPJC - Zelienople Municipal Airport (19 nm NW)
KPIT - Pittsburgh International Airport (20 nm W)
 
Loc | Ops | Rwys | IFR | FBO | Links
Com | Nav | Svcs | Stats | Notes
Area around 9G1 (Pittsburgh Northeast Airport)
 
Road maps at: MapQuest Bing Google
 
Aerial photo
WARNING: Photo may not be current or correct
Aerial photo of 9G1 (Pittsburgh Northeast Airport)
Photo taken 09-May-2016
looking south.

Do you have a better or more recent aerial photo of Pittsburgh Northeast Airport that you would like to share? If so, please send us your photo.

 
Sectional chart

 
Airport distance calculator
Flying to Pittsburgh Northeast Airport? Find the distance to fly.

From to 9G1

Sunrise and sunset
Times for 12-Jun-2021
 Local
(UTC-4)
 Zulu
(UTC)
Morning civil twilight05:1609:16
Sunrise05:4909:49
Sunset20:4900:49
Evening civil twilight21:2301:23

Current date and time
Zulu (UTC)  12-Jun-2021 18:57:16
Local (UTC-4)  12-Jun-2021 14:57:16
 
METAR
KBTP 
11nm NW 
121845Z AUTO 00000KT 10SM BKN027 25/19 A2987 RMK AO2 $
KAGC 
16nm S 
121853Z AUTO VRB04KT 10SM CLR 27/18 A2985 RMK AO2 SLP105 T02670183
KPJC 
19nm NW 
121855Z AUTO 00000KT 10SM SCT033 26/18 A2984 RMK AO2
KPIT 
21nm W 
121851Z 01003KT 10SM FEW027 SCT033 BKN200 28/18 A2985 RMK AO2 SLP108 T02780183
TAF
KAGC 
16nm S 
121724Z 1218/1318 05004KT P6SM SCT025 FM130100 05003KT P6SM FEW250 FM130800 00000KT 2SM BR SCT060 FM131300 24005KT P6SM SCT070
NOTAMs
Click for the latest NOTAMs
NOTAMs are issued by the DoD/FAA and will open in a separate window not controlled by AirNav.

 

 
 

Would you like to see your business listed on this page?

 If your business provides an interesting product or service to pilots, flight crews, aircraft, or users of the Pittsburgh Northeast Airport, you should consider listing it here.  To start the listing process, click on the button below
 
Add a business
 

Other Pages about Pittsburgh Northeast Airport

www.rock-port.com
 
Update a link
 
Copyright © AirNav, LLC. All rights reserved. Privacy Policy  Contact